HAWK-A (43765 NORAD) Tracking and Keplerian Element Data

This shows tracking and keplerian element data for the satellite.

Feedback or suggestion? Click here.




ElementValue
Catalog43765
NameHAWK-A
Epoch Orbit2113
Epoch Day114.1552058
Epoch Year2019
RAAN186.9518
Inclination97.7456
Eccentricity0.001581
Argument of Perigee155.5953
Mean Anonmoly204.602
Mean Motion14.95960786
Decay Rate5.6E-06
L11 43765U 18099H 19114.15520580 .00000560 00000-0 55068-4 0 9993
L22 43765 97.7456 186.9518 0015810 155.5953 204.6020 14.95960786 21137

Live tracking and technical data element details for HAWK-A (NORAD 43765). HAWK-A can be tracked NOW for your location showing map with azimuth and elevation plus other details from your city location.

Track the satellite on the map from your city or location and see movement details for azimuth, elevation, latitude, longitude, range, height, and movement on the map or in text.







IsCatalogInMostPopularTable: catalog: 43765, numindb: 50
Update: records affected: 1



GetName: 43765 HAWK-A

Hit Count: updated at: Wed, 24 Apr 2019 17:52:39 GMT